Home > Weather > Dover > Past weeks

Flag for USA Past Weather in Dover, Delaware, USA — Yesterday and Last 2 Weeks

Now
75 °F

Rain. Fog.


Feels Like: 73 °F
Forecast: 75 / 84 °F
Wind: 2 mph from South

Location: Dover Air Force Base

Current Time: Jul 29, 2016 at 2:16:40 AM

Latest Report: Jul 29, 2016 at 1:48 AM


Visibility: 5 mi

Pressure: 29.82 "Hg

Humidity: 100%

Dew Point: 75 °F

Location of DoverLocation

Past Weather in Dover — Graph

°F

Dover Temperature Yesterday

Maximum temperature yesterday: 88 °F (at 11:58 AM)
Minimum temperature yesterday: 74 °F (at 5:58 PM)
Average temperature yesterday: 78 °F

High & Low Weather Summary for the Past Weeks

 TemperatureHumidityPressure
High97 °F (Jul 25, 3:58 PM)100% (Jul 14, 12:58 AM)30.21 "Hg (Jul 14, 12:58 AM)
Low66 °F (Jul 21, 5:58 AM)47% (Jul 22, 3:58 PM)29.82 "Hg (Jul 28, 9:58 PM)
Average81 °F82%29.99 "Hg
* Reported Jul 14 12:58 AM — Jul 29 12:58 AM, Dover, Weather by CustomWeather, © 2016

Note: Actual official high and low records may vary slightly from our data, if they occured in-between our weather recording intervals... More about our weather records

Advertising

Dover Weather History for the Previous 24 Hours

Scroll right to see more
 ConditionsComfort  
Time TempWeatherWind HumidityBarometerVisibility
12:58 AM
Fri, Jul 29
75 °FLight rain. Passing clouds.3 mph100%29.85 "Hg10 mi
12:53 AM75 °FLight rain. Passing clouds.2 mph100%29.84 "Hg9 mi
11:58 PM
Thu, Jul 28
75 °FLight rain. Passing clouds.2 mph100%29.85 "Hg10 mi
11:04 PM75 °FClear.9 mph100%29.85 "Hg10 mi
10:58 PM75 °FLight rain. Passing clouds.9 mph100%29.86 "Hg10 mi
9:58 PM74 °FClear.2 mph100%29.82 "Hg10 mi
8:58 PM76 °FMostly cloudy.9 mph100%29.86 "Hg10 mi
7:58 PM76 °FPartly sunny.3 mph100%29.86 "Hg10 mi
7:04 PM75 °FSunny.16 mph100%29.83 "Hg10 mi
6:58 PM75 °FThundershowers. Scattered clouds.10 mph100%29.85 "Hg8 mi
5:58 PM74 °FLight rain. Broken clouds.13 mph100%29.87 "Hg10 mi
4:58 PM82 °FThundershowers. Partly sunny.9 mph82%29.84 "Hg10 mi
2:58 PM77 °FThundershowers. Broken clouds.8 mph100%29.88 "Hg10 mi
1:58 PM87 °FSunny.17 mph75%29.84 "Hg10 mi
11:58 AM88 °FScattered clouds.10 mph73%29.89 "Hg10 mi
9:58 AM87 °FSunny.7 mph75%29.91 "Hg10 mi
8:58 AM84 °FSunny.3 mph85%29.91 "Hg10 mi
7:58 AM81 °FSunny.2 mph100%29.91 "Hg10 mi
6:58 AM76 °FClear.No wind100%29.91 "Hg7 mi
5:58 AM76 °FClear.No wind100%29.90 "Hg10 mi
4:58 AM78 °FPassing clouds.3 mph100%29.90 "Hg10 mi
3:58 AM79 °FPassing clouds.1 mph97%29.90 "Hg10 mi
2:58 AM79 °FPassing clouds.1 mph99%29.90 "Hg10 mi
Weather by CustomWeather, © 2016

See weather overviewHow to use our weather pages